Welcome!

Rain radar more information rain snow radar


Visit our other weather sites:

Template documentation
and downloads

And another site



from: Jan 17 2020 2:33 am until: Jan 18 2020 6:00 am Winter Weather Advisory level: Minor
Minimal threat to life or property - Responsive action SHOULD be taken soon (within next hour)

Select another period ( hide this area )

Units Period Custom range Directly to
Metric English Both
Daily Weekly Monthly Yearly
use both date-selectors for a custom range
previous Day
With this date

WeatherUnderground graphs for this period ( click here )


Daily Summary for Friday Jan 17 2020
Time Temp. ( °C ) Dew pt. ( °C ) Wind ( km/h ) from Gust ( km/h ) Pressure ( hPa ) Humid.( % ) Rainrate ( cm )
High-3,9 -5,5 32,2 SE ( 937/1047 ) 45,1 1036,1 89 -
Average-6,2 -8,5 18,2 SE #85/93 27,5 1029,3 84 -
Low-7,7 -11,4 11,3   14,8 1024,6 74 -
Daily Tabular details for Friday Jan 17 2020
Time Temp. ( °C ) Dew pt. ( °C ) Wind ( km/h ) from Gust ( km/h ) Pressure ( hPa ) Humid.( % ) Rainrate ( cm )
00:00 -7,7 -11,4 12,9 SE 20,9 1036,1 75 -
00:05 -7,6 -11,4 11,3 SE 22,5 1036,1 74 -
00:10 -7,5 -11,3 14,5 SE 27,4 1036,1 74 -
00:15 -7,4 -11,3 19,3 SE 27,4 1035,8 74 -
00:20 -7,3 -11,2 19,3 SE 27,4 1035,8 74 -
00:25 -7,3 -11,1 14,5 SE 24,1 1035,4 74 -
00:30 -7,2 -11,1 20,9 SE 35,4 1035,4 74 -
00:35 -7,2 -11,1 22,5 SE 29,0 1035,4 74 -
00:40 -7,2 -11,1 19,3 SE 29,0 1035,4 74 -
00:45 -7,3 -10,9 16,1 SE 25,7 1035,1 75 -
00:50 -7,3 -10,8 14,5 SE 27,4 1035,1 76 -
00:55 -7,3 -10,8 16,1 SE 25,7 1035,1 76 -
01:00 -7,3 -10,7 16,1 SE 24,1 1034,8 77 -
01:05 -7,3 -10,5 22,5 SE 29,0 1034,8 78 -
01:10 -7,3 -10,6 22,5 SE 29,0 1034,8 78 -
01:15 -7,4 -10,4 20,9 SE 29,0 1034,4 79 -
01:20 -7,4 -10,3 16,1 SE 24,1 1034,4 80 -
01:25 -7,4 -10,3 14,5 SE 24,1 1034,4 80 -
01:30 -7,4 -10,1 14,5 SE 24,1 1034,4 81 -
01:35 -7,3 -10,2 20,9 SE 27,4 1034,4 80 -
01:40 -7,3 -10,0 14,5 SE 25,7 1034,4 81 -
01:45 -7,3 -10,0 16,1 SE 27,4 1034,1 81 -
01:50 -7,2 -9,9 19,3 SE 29,0 1034,1 81 -
01:55 -7,2 -9,8 19,3 SE 27,4 1034,1 82 -
02:00 -7,2 -9,7 16,1 SE 25,7 1033,7 82 -
02:13 -7,2 -9,6 24,1 SE 21,1 1033,4 83 -
02:15 -7,2 -9,6 14,5 SE 24,1 1033,4 83 -
02:20 -7,2 -9,6 20,4 SE 14,8 1033,4 83 -
02:25 -7,2 -9,6 16,1 SE 20,9 1033,1 83 -
02:30 -7,2 -9,4 12,9 SE 20,9 1033,1 84 -
02:35 -7,1 -9,4 14,5 SE 22,5 1032,7 84 -
02:40 -7,1 -9,3 16,1 SE 24,1 1032,7 84 -
02:45 -7,0 -9,3 16,1 SE 22,5 1033,1 84 -
02:50 -6,9 -9,2 19,3 SE 27,4 1033,1 84 -
02:55 -6,9 -9,1 16,1 SE 27,4 1032,7 84 -
03:00 -6,8 -9,1 14,5 SE 22,5 1032,7 84 -
03:05 -6,7 -9,0 19,3 SE 27,4 1032,7 84 -
03:10 -6,7 -8,9 19,3 SE 29,0 1032,4 84 -
03:15 -6,6 -8,8 14,5 SE 25,7 1032,4 84 -
03:20 -6,6 -8,9 12,9 SE 27,4 1032,1 84 -
03:25 -6,6 -8,9 19,3 SE 24,1 1031,7 84 -
03:30 -6,6 -8,7 16,1 SE 29,0 1031,4 85 -
03:35 -6,5 -8,6 20,9 SE 32,2 1031,0 85 -
03:40 -6,4 -8,6 20,9 SE 35,4 1031,0 85 -
03:45 -6,4 -8,6 25,7 ESE 37,0 1030,7 85 -
03:50 -6,4 -8,5 24,1 ESE 38,6 1030,7 85 -
03:55 -6,3 -8,4 16,1 ESE 35,4 1030,4 85 -
04:00 -6,3 -8,4 22,5 ESE 27,4 1030,4 85 -
04:05 -6,3 -8,4 22,5 ESE 32,2 1030,4 85 -
04:10 -6,3 -8,4 19,3 ESE 32,2 1030,0 85 -
04:15 -6,3 -8,4 14,5 ESE 25,7 1030,0 85 -
04:20 -6,3 -8,4 12,9 SE 27,4 1030,0 85 -
04:25 -6,2 -8,2 14,5 SE 25,7 1030,0 86 -
04:30 -6,2 -8,2 16,1 SE 27,4 1029,7 86 -
04:35 -6,1 -8,1 16,1 SE 27,4 1029,7 86 -
04:40 -6,1 -8,0 20,9 SE 27,4 1029,3 86 -
04:45 -6,0 -8,0 19,3 SE 27,4 1029,3 86 -
04:50 -6,0 -7,9 16,1 SE 24,1 1029,0 86 -
04:55 -6,0 -7,9 14,5 SE 25,7 1029,0 86 -
05:00 -6,0 -7,9 12,9 SE 19,3 1029,0 86 -
05:05 -5,9 -7,8 16,1 SE 22,5 1029,0 87 -
05:10 -5,9 -7,7 16,1 SE 25,7 1029,0 87 -
05:15 -5,8 -7,7 19,3 SE 25,7 1028,7 87 -
05:20 -5,8 -7,7 24,1 SE 17,1 1028,3 87 -
05:25 -5,8 -7,6 19,3 SE 24,1 1028,3 87 -
05:30 -5,7 -7,6 14,5 SE 24,1 1028,0 87 -
05:35 -5,7 -7,6 16,1 SE 24,1 1028,0 87 -
05:40 -5,7 -7,5 14,5 SE 22,5 1028,0 87 -
05:45 -5,6 -7,4 12,9 SE 19,3 1028,0 87 -
05:50 -5,6 -7,4 12,9 SE 24,1 1027,7 87 -
05:55 -5,4 -7,3 12,9 SE 19,3 1027,7 87 -
06:00 -5,4 -7,3 12,9 SE 22,5 1027,3 87 -
06:05 -5,3 -7,0 16,1 SE 19,3 1027,3 88 -
06:10 -5,2 -6,9 14,5 SE 22,5 1027,0 88 -
06:15 -5,1 -6,7 19,3 SE 24,1 1027,0 88 -
06:20 -4,9 -6,6 19,3 SE 27,4 1026,6 88 -
06:25 -4,8 -6,5 16,1 SE 29,0 1026,6 88 -
06:30 -4,8 -6,5 19,3 SE 25,7 1026,6 88 -
06:35 -4,7 -6,4 20,9 SE 29,0 1026,3 88 -
06:40 -4,7 -6,4 19,3 SE 32,2 1026,0 88 -
06:45 -4,7 -6,3 20,9 SE 32,2 1026,0 88 -
06:50 -4,6 -6,2 19,3 SE 32,2 1026,0 88 -
06:55 -4,5 -6,2 20,9 SE 32,2 1026,0 88 -
07:00 -4,4 -6,1 22,5 SE 32,2 1026,0 88 -
07:05 -4,3 -5,9 19,3 SE 32,2 1025,6 88 -
07:10 -4,2 -5,9 24,1 SE 33,8 1025,6 88 -
07:15 -4,2 -5,8 20,9 SE 43,5 1025,6 88 -
07:20 -4,2 -5,8 22,5 SE 37,0 1025,3 88 -
07:25 -4,1 -5,8 24,1 SE 38,6 1024,9 88 -
07:30 -4,1 -5,7 20,9 SE 33,8 1024,9 88 -
07:35 -4,0 -5,6 24,1 SE 35,4 1024,6 89 -
07:40 -4,0 -5,6 32,2 SSE 45,1 1024,6 89 -
07:45 -3,9 -5,5 25,7 SE 43,5 1024,6 89 -
Daily Summary for Friday Jan 17 2020
Time Temp. ( °C ) Dew pt. ( °C ) Wind ( km/h ) from Gust ( km/h ) Pressure ( hPa ) Humid.( % ) Rainrate ( cm )
High-3,9 -5,5 32,2 SE ( 937/1047 ) 45,1 1036,1 89 -
Average-6,2 -8,5 18,2 SE #85/93 27,5 1029,3 84 -
Low-7,7 -11,4 11,3   14,8 1024,6 74 -
Daily Tabular details for Friday Jan 17 2020
Time Temp. ( °C ) Dew pt. ( °C ) Wind ( km/h ) from Gust ( km/h ) Pressure ( hPa ) Humid.( % ) Rainrate ( cm )
00:00 -7,7 -11,4 12,9 SE 20,9 1036,1 75 -
00:05 -7,6 -11,4 11,3 SE 22,5 1036,1 74 -
00:10 -7,5 -11,3 14,5 SE 27,4 1036,1 74 -
00:15 -7,4 -11,3 19,3 SE 27,4 1035,8 74 -
00:20 -7,3 -11,2 19,3 SE 27,4 1035,8 74 -
00:25 -7,3 -11,1 14,5 SE 24,1 1035,4 74 -
00:30 -7,2 -11,1 20,9 SE 35,4 1035,4 74 -
00:35 -7,2 -11,1 22,5 SE 29,0 1035,4 74 -
00:40 -7,2 -11,1 19,3 SE 29,0 1035,4 74 -
00:45 -7,3 -10,9 16,1 SE 25,7 1035,1 75 -
00:50 -7,3 -10,8 14,5 SE 27,4 1035,1 76 -
00:55 -7,3 -10,8 16,1 SE 25,7 1035,1 76 -
01:00 -7,3 -10,7 16,1 SE 24,1 1034,8 77 -
01:05 -7,3 -10,5 22,5 SE 29,0 1034,8 78 -
01:10 -7,3 -10,6 22,5 SE 29,0 1034,8 78 -
01:15 -7,4 -10,4 20,9 SE 29,0 1034,4 79 -
01:20 -7,4 -10,3 16,1 SE 24,1 1034,4 80 -
01:25 -7,4 -10,3 14,5 SE 24,1 1034,4 80 -
01:30 -7,4 -10,1 14,5 SE 24,1 1034,4 81 -
01:35 -7,3 -10,2 20,9 SE 27,4 1034,4 80 -
01:40 -7,3 -10,0 14,5 SE 25,7 1034,4 81 -
01:45 -7,3 -10,0 16,1 SE 27,4 1034,1 81 -
01:50 -7,2 -9,9 19,3 SE 29,0 1034,1 81 -
01:55 -7,2 -9,8 19,3 SE 27,4 1034,1 82 -
02:00 -7,2 -9,7 16,1 SE 25,7 1033,7 82 -
02:13 -7,2 -9,6 24,1 SE 21,1 1033,4 83 -
02:15 -7,2 -9,6 14,5 SE 24,1 1033,4 83 -
02:20 -7,2 -9,6 20,4 SE 14,8 1033,4 83 -
02:25 -7,2 -9,6 16,1 SE 20,9 1033,1 83 -
02:30 -7,2 -9,4 12,9 SE 20,9 1033,1 84 -
02:35 -7,1 -9,4 14,5 SE 22,5 1032,7 84 -
02:40 -7,1 -9,3 16,1 SE 24,1 1032,7 84 -
02:45 -7,0 -9,3 16,1 SE 22,5 1033,1 84 -
02:50 -6,9 -9,2 19,3 SE 27,4 1033,1 84 -
02:55 -6,9 -9,1 16,1 SE 27,4 1032,7 84 -
03:00 -6,8 -9,1 14,5 SE 22,5 1032,7 84 -
03:05 -6,7 -9,0 19,3 SE 27,4 1032,7 84 -
03:10 -6,7 -8,9 19,3 SE 29,0 1032,4 84 -
03:15 -6,6 -8,8 14,5 SE 25,7 1032,4 84 -
03:20 -6,6 -8,9 12,9 SE 27,4 1032,1 84 -
03:25 -6,6 -8,9 19,3 SE 24,1 1031,7 84 -
03:30 -6,6 -8,7 16,1 SE 29,0 1031,4 85 -
03:35 -6,5 -8,6 20,9 SE 32,2 1031,0 85 -
03:40 -6,4 -8,6 20,9 SE 35,4 1031,0 85 -
03:45 -6,4 -8,6 25,7 ESE 37,0 1030,7 85 -
03:50 -6,4 -8,5 24,1 ESE 38,6 1030,7 85 -
03:55 -6,3 -8,4 16,1 ESE 35,4 1030,4 85 -
04:00 -6,3 -8,4 22,5 ESE 27,4 1030,4 85 -
04:05 -6,3 -8,4 22,5 ESE 32,2 1030,4 85 -
04:10 -6,3 -8,4 19,3 ESE 32,2 1030,0 85 -
04:15 -6,3 -8,4 14,5 ESE 25,7 1030,0 85 -
04:20 -6,3 -8,4 12,9 SE 27,4 1030,0 85 -
04:25 -6,2 -8,2 14,5 SE 25,7 1030,0 86 -
04:30 -6,2 -8,2 16,1 SE 27,4 1029,7 86 -
04:35 -6,1 -8,1 16,1 SE 27,4 1029,7 86 -
04:40 -6,1 -8,0 20,9 SE 27,4 1029,3 86 -
04:45 -6,0 -8,0 19,3 SE 27,4 1029,3 86 -
04:50 -6,0 -7,9 16,1 SE 24,1 1029,0 86 -
04:55 -6,0 -7,9 14,5 SE 25,7 1029,0 86 -
05:00 -6,0 -7,9 12,9 SE 19,3 1029,0 86 -
05:05 -5,9 -7,8 16,1 SE 22,5 1029,0 87 -
05:10 -5,9 -7,7 16,1 SE 25,7 1029,0 87 -
05:15 -5,8 -7,7 19,3 SE 25,7 1028,7 87 -
05:20 -5,8 -7,7 24,1 SE 17,1 1028,3 87 -
05:25 -5,8 -7,6 19,3 SE 24,1 1028,3 87 -
05:30 -5,7 -7,6 14,5 SE 24,1 1028,0 87 -
05:35 -5,7 -7,6 16,1 SE 24,1 1028,0 87 -
05:40 -5,7 -7,5 14,5 SE 22,5 1028,0 87 -
05:45 -5,6 -7,4 12,9 SE 19,3 1028,0 87 -
05:50 -5,6 -7,4 12,9 SE 24,1 1027,7 87 -
05:55 -5,4 -7,3 12,9 SE 19,3 1027,7 87 -
06:00 -5,4 -7,3 12,9 SE 22,5 1027,3 87 -
06:05 -5,3 -7,0 16,1 SE 19,3 1027,3 88 -
06:10 -5,2 -6,9 14,5 SE 22,5 1027,0 88 -
06:15 -5,1 -6,7 19,3 SE 24,1 1027,0 88 -
06:20 -4,9 -6,6 19,3 SE 27,4 1026,6 88 -
06:25 -4,8 -6,5 16,1 SE 29,0 1026,6 88 -
06:30 -4,8 -6,5 19,3 SE 25,7 1026,6 88 -
06:35 -4,7 -6,4 20,9 SE 29,0 1026,3 88 -
06:40 -4,7 -6,4 19,3 SE 32,2 1026,0 88 -
06:45 -4,7 -6,3 20,9 SE 32,2 1026,0 88 -
06:50 -4,6 -6,2 19,3 SE 32,2 1026,0 88 -
06:55 -4,5 -6,2 20,9 SE 32,2 1026,0 88 -
07:00 -4,4 -6,1 22,5 SE 32,2 1026,0 88 -
07:05 -4,3 -5,9 19,3 SE 32,2 1025,6 88 -
07:10 -4,2 -5,9 24,1 SE 33,8 1025,6 88 -
07:15 -4,2 -5,8 20,9 SE 43,5 1025,6 88 -
07:20 -4,2 -5,8 22,5 SE 37,0 1025,3 88 -
07:25 -4,1 -5,8 24,1 SE 38,6 1024,9 88 -
07:30 -4,1 -5,7 20,9 SE 33,8 1024,9 88 -
07:35 -4,0 -5,6 24,1 SE 35,4 1024,6 89 -
07:40 -4,0 -5,6 32,2 SSE 45,1 1024,6 89 -
07:45 -3,9 -5,5 25,7 SE 43,5 1024,6 89 -

Download your copy of this data-set  here

Our weather-data as stored at Weather Underground. Script developed by Jim McMurry. Adapted for the template by Leuven-Template.eu